User: anonymous   Login
Location: Peebles
(55.6412°N, 3.1714°W)
Time: 05:09:25
(UTC+01:00)
Language:

Altair 2 - Orbit

View from above orbital plane
View from above orbital plane
View from above satellite
View from above satellite

Ground track
Ground track

The orbit data is extracted from the following two-line orbital elements,

1 00979U 65004B   24108.57402304  .00000270  00000-0  34927-3 0  9997
2 00979  96.4195 334.6275 1140786 183.1469 176.1954 12.15033587619521
Epoch (UTC): 17 April 2024 13:46:35
Eccentricity: 0.1140786
inclination: 96.4195°
perigee height: 702 km
apogee height: 2526 km
right ascension of ascending node: 334.6275°
argument of perigee: 183.1469°
revolutions per day: 12.15033587
mean anomaly at epoch: 176.1954°
orbit number at epoch: 61952

The dashed part of the orbit path shows where the satellite is in the earth's shadow,  

DLR